This demonstration page uses our WeatherBlox Daily Observations layout. Learn more.

Left ArrowRight Arrow

44.8408, -93.29828

Hourly Observations for March 27, 2018

Temp ( °F °C ) Dew Point ( °F °C ) Humidity (%) Winds ( mph kmh ) Pressure ( in mb ) Visibility ( mi km ) Precip ( " mm )
12:01 am 00:01 Cloudy with Drizzle 34 1.1 34 1.1 100 100 Calm 30.00 1016 3 5 0.00 0.03
12:11 am 00:11 Cloudy with Drizzle 34 1.1 34 1.1 100 100 Calm 30.00 1016 3 4 0.00 0.03
12:24 am 00:24 Cloudy with Drizzle 34 1.1 34 1.1 100 100 Calm 30.00 1016 2 2 0.00 0.03
12:35 am 00:35 Cloudy with Mist and Fog 34 1.1 34 1.1 100 100 Calm 30.00 1016 2 3 0.00 0.03
12:53 am 00:53 Cloudy with Mist and Fog 34 1.1 34 1.1 100 100 Calm 29.97 1015 2 3 0.00 0.03
1:02 am 01:02 Cloudy with Mist and Fog 34 1.1 34 1.1 100 100 NW 3 6 30.00 1016 2 3 0.00 0.00
1:51 am 01:51 Cloudy with Mist and Fog 34 1 34 1 100 100 W 3 6 30.00 1016 3 5 0.00 0.00
1:53 am 01:53 Cloudy with Mist and Fog 34 1.1 34 1.1 100 100 W 3 6 29.96 1014 3 5 0.00 0.00
2:08 am 02:08 Cloudy with Mist and Fog 34 1.1 34 1.1 100 100 W 5 7 30.00 1016 3 4 0.00 0.00
2:53 am 02:53 Cloudy with Mist and Fog 34 1.1 34 1.1 100 100 WNW 7 11 29.96 1015 3 4 0.00 0.00
3:22 am 03:22 Cloudy with Mist and Fog 34 1.1 34 1.1 100 100 WNW 12 19 30.00 1016 3 5 0.00 0.00
3:53 am 03:53 Cloudy with Mist and Fog 34 1.1 34 1.1 100 100 WNW 10 17 29.97 1015 4 6 0.00 0.00
4:03 am 04:03 Cloudy with Mist and Fog 34 1.1 34 1.1 100 100 WNW 10 17 30.00 1016 4 6 0.00 0.00
4:53 am 04:53 Cloudy with Mist and Fog 33 0.6 33 0.6 100 100 WNW 12 19 29.99 1016 6 10 0.00 0.00
5:06 am 05:06 Cloudy 33 0.6 33 0.6 100 100 WNW 13 20 30.00 1016 7 11 0.00 0.00
5:53 am 05:53 Cloudy 33 0.6 32 0 96 96 NW 13 20 30.00 1016 7 11 0.00 0.00
6:53 am 06:53 Cloudy 33 0.6 32 0 96 96 NW 9 15 30.02 1017 7 11 0.00 0.00
7:53 am 07:53 Cloudy 33 0.6 32 0 96 96 WNW 9 15 30.05 1018 7 11 0.00 0.00
8:53 am 08:53 Cloudy 33 0.6 31 -0.6 92 92 NW 12 19 30.06 1018 8 13 0.00 0.00
9:18 am 09:18 Cloudy 34 1.1 31 -0.6 89 89 NW 14 22 30.06 1018 7 11 0.00 0.00
9:43 am 09:43 Cloudy 34 1.1 30 -1.1 85 85 WNW 10 17 30.06 1018 8 13 0.00 0.00
9:53 am 09:53 Cloudy 34 1.1 31 -0.6 89 89 NW 13 20 30.07 1018 9 14 0.00 0.00
10:36 am 10:36 Cloudy 34 1.1 31 -0.6 89 89 NW 10 17 30.09 1019 10 16 0.00 0.00
10:53 am 10:53 Cloudy 35 1.7 31 -0.6 85 85 NW 10 17 30.09 1019 10 16 0.00 0.00
11:12 am 11:12 Cloudy 35 1.7 32 0 89 89 WNW 13 20 30.12 1020 10 16 0.00 0.00
11:53 am 11:53 Cloudy 35 1.7 32 0 89 89 W 10 17 30.10 1019 9 14 0.00 0.00
12:53 pm 12:53 Cloudy 36 2.2 31 -0.6 82 82 W 9 15 30.10 1019 10 16 0.00 0.00
1:03 pm 13:03 Cloudy 37 2.8 32 0 82 82 W 13 20 30.09 1019 10 16 0.00 0.00
1:53 pm 13:53 Mostly Cloudy 39 3.9 32 0 76 76 W 8 13 30.09 1019 10 16 0.00 0.00
2:05 pm 14:05 Partly Cloudy 40 4.4 32 0 73 73 W 9 15 30.09 1019 10 16 0.00 0.00
2:53 pm 14:53 Mostly Sunny 42 5.6 31 -0.6 65 65 W 9 15 30.07 1018 10 16 0.00 0.00
3:53 pm 15:53 Mostly Sunny 45 7.2 31 -0.6 58 58 WSW 9 15 30.06 1018 10 16 0.00 0.00
4:53 pm 16:53 Mostly Sunny 46 7.8 33 0.6 61 61 SW 9 15 30.05 1018 10 16 0.00 0.00
5:53 pm 17:53 Sunny 47 8.3 35 1.7 63 63 WSW 9 15 30.04 1017 10 16 0.00 0.00
6:53 pm 18:53 Sunny 47 8.3 35 1.7 63 63 SW 9 15 30.04 1017 10 16 0.00 0.00
7:53 pm 19:53 Clear 45 7.2 36 2.2 71 71 SW 9 15 30.05 1018 10 16 0.00 0.00
8:53 pm 20:53 Clear 43 6.1 36 2.2 76 76 SW 7 11 30.05 1018 10 16 0.00 0.00
9:53 pm 21:53 Clear 41 5 35 1.7 79 79 SSW 7 11 30.06 1018 10 16 0.00 0.00
10:53 pm 22:53 Clear 37 2.8 33 0.6 86 86 S 7 11 30.05 1018 8 13 0.00 0.00
11:53 pm 23:53 Clear 35 1.7 32 0 89 89 SSW 7 11 30.05 1018 7 11 0.00 0.00

Powered by AerisWeather